This is the latest recevied weather packets stored in our database for station/object SV9TNF-56. If no packets are shown the sender has not sent any weather packets the latest 10 day(s).
| Time | Temp. | Humidity | Pressure | Rain* | Wind** | Luminosity | Snow |
|---|---|---|---|---|---|---|---|
| 1788037921 | 23.33° C | 70% | 1018.6 hPa | 0 mm | 16.99 m/s, 87° | - | - |
| 1788037621 | 23.33° C | 69% | 1019 hPa | 0 mm | 13.86 m/s, 90° | - | - |
| 1788037321 | 23.33° C | 69% | 1019 hPa | 0 mm | 4.47 m/s, 192° | - | - |
| 1788037021 | 23.33° C | 68% | 1019 hPa | 0 mm | 7.15 m/s, 192° | - | - |
| 1788036721 | 23.33° C | 67% | 1019 hPa | 0 mm | 5.81 m/s, 198° | - | - |
| 1788036421 | 23.33° C | 66% | 1019 hPa | 0 mm | 3.13 m/s, 201° | - | - |
| 1788036120 | 23.33° C | 66% | 1019 hPa | 0 mm | 5.81 m/s, 240° | - | - |
| 1788035822 | 23.33° C | 66% | 1019.3 hPa | 0 mm | 6.71 m/s, 156° | - | - |
| 1788035520 | 23.33° C | 66% | 1019.3 hPa | 0 mm | 13.86 m/s, 138° | - | - |
| 1788035220 | 23.33° C | 64% | 1019.3 hPa | 0 mm | 6.26 m/s, 114° | - | - |
| 1788034920 | 23.33° C | 63% | 1019.3 hPa | 0 mm | 8.94 m/s, 90° | - | - |
| 1788034620 | 23.33° C | 64% | 1019.3 hPa | 0 mm | 12.52 m/s, 155° | - | - |
| 1788034320 | 23.33° C | 66% | 1019.3 hPa | 0 mm | 10.28 m/s, 121° | - | - |
| 1788034020 | 23.33° C | 65% | 1019.3 hPa | 0 mm | 7.6 m/s, 183° | - | - |
| 1788033720 | 23.33° C | 65% | 1019.3 hPa | 0 mm | 7.15 m/s, 160° | - | - |
| 1788033420 | 23.33° C | 64% | 1019.3 hPa | 0 mm | 7.6 m/s, 154° | - | - |
| 1788033119 | 23.33° C | 63% | 1019 hPa | 0 mm | 8.94 m/s, 168° | - | - |
| 1788032819 | 23.89° C | 62% | 1019.3 hPa | 0 mm | 8.05 m/s, 58° | - | - |
| 1788032519 | 23.33° C | 59% | 1019 hPa | 0 mm | 16.54 m/s, 162° | - | - |
| 1788032219 | 23.33° C | 60% | 1019 hPa | 0 mm | 8.49 m/s, 228° | - | - |
| 1788031919 | 23.33° C | 61% | 1019 hPa | 0 mm | 27.72 m/s, 126° | - | - |
| 1788031619 | 23.89° C | 59% | 1018.6 hPa | 0 mm | 16.09 m/s, 115° | - | - |
| 1788031319 | 23.33° C | 59% | 1019 hPa | 0 mm | 13.86 m/s, 128° | - | - |
| 1788031019 | 23.33° C | 60% | 1018.6 hPa | 0 mm | 7.15 m/s, 174° | - | - |
| 1788030719 | 23.33° C | 59% | 1019 hPa | 0 mm | 13.41 m/s, 78° | - | - |
* Rain latest hour (hover to see other rain measurements)
** Current wind speed in m/s (hover to see current wind gust speed)